Location: St. Louis
(38.6270°N, 90.1994°W)
Time: 05:14:05
(UTC-06:00)

Tiros 1 - Pass Details

Date: 04 December 2021
Orbit: 630 x 663 km, 48.4° (Epoch: 20 January)

Event Time Altitude Azimuth Distance (km) Brightness Sun altitude
Rises 17:33:49 0° 224° (SW) 2,903 11.8 -10.5°
Reaches altitude 10° 17:36:09 10° 221° (SW) 2,001 10.7 -10.9°
Maximum altitude 17:40:40 59° 142° (SE) 733 7.3 -11.8°
Enters shadow 17:44:00 18° 67° (ENE) 1,560 8.5 -12.4°
